Αρχική σελίδα
METAR-TAF:

METAR-TAF

Αεροδρόμια :

Palo Alto Airport of Santa Clara County

Palo Alto, Καλιφόρνια, Ηνωμένες Πολιτείες Αμερικής

γεωγραφικό πλάτος: 37-28N, γεωγραφικό μήκος: 122-07W, υψόμετρο: 2 μ

Παρών καιρός

Η αναφορά έγινε 1 ώρα και 4 λεπτά πριν, στις 17:47 UTC
Ήπιος άνεμος
Θερμοκρασία 10°C
Υγρασία 93%
Πίεση 1020 hPa
Ορατότητα: 2.4 χλμ
Νεφοσκεπής σε ύψος 500 πόδια
καπνός

METAR: KPAO 181747Z 00000KT 1 1/2SM FU OVC005 10/09 A3013

Χρόνος: 10:51 (18:51 UTC)


TAF: λείπει

Μετεωρολογικές αναφορές και προγνώσεις για περισσότερα από 4000 αεροδρόμια (δελτία METAR και TAF).

Οι διαθέσιμοι σταθμοί απεικονίζονται στο χάρτη με κίτρινες και κόκκινες κουκκίδες.

Μετακινήστε το ποντίκι πάνω από τις κουκκίδες για να δείτε το όνομα του σταθμού.

Στη συνέχεια, κάντε κλικ για να δείτε τις μετεωρολογικές αναφορές και τις προγνώσεις καιρού.

Για να αλλάξετε το χάρτη: κάντε κλικ στα πράσινα κουμπιά με τον μαύρο σταυρό για να ζουμάρετε, στο πράσινο κουμπί με την παύλα για να αφαιρέσετε το ζουμ ή στα πράσινα βέλη για να αντιπαραβάλλετε χάρτες.


METAR-TAF: